Location: Shenandoah County Park
(38.9356°N, 78.4524°W)
Time: 10:17:30
(UTC-04:00)

Envisat - Pass Details

Date: 06 October 2022
Orbit: 763 x 764 km, 98.2° (Epoch: 27 September)

Event Time Altitude Azimuth Distance (km) Brightness Sun altitude
Rises 04:52:14 0° 21° (NNE) 3,234 6.8 -28.2°
Reaches altitude 10° 04:54:43 10° 30° (NNE) 2,304 6.0 -27.7°
Maximum altitude 04:59:24 37° 98° (E) 1,175 4.4 -26.8°
Drops below altitude 10° 05:04:04 10° 165° (SSE) 2,291 5.4 -26.0°
Sets 05:06:31 0° 173° (S) 3,213 6.1 -25.5°
